• In Uzbekistan
  • List of Countries
  • For 7 days
  • Water Temperature
  • Satellite Maps
  • Weather Map
  • Weather Widgets
  • user-avatar
    Login

    Hourly Weather La Massana

    Today, 22 November, Wednesday

    Time Temperature Precipitation Wind Pressure Humidity
    00:00 +2°C° 0 mm 1 mps 610 mmHg 52%
    01:00 +2°C° 0 mm 1 mps 610 mmHg 51%
    02:00 +2°C° 0 mm 1 mps 609 mmHg 50%
    03:00 +2°C° 0 mm 1 mps 609 mmHg 49%
    04:00 +2°C° 0 mm 1 mps 609 mmHg 47%
    05:00 +1°C° 0 mm 1 mps 608 mmHg 45%
    06:00 +1°C° 0 mm 1 mps 608 mmHg 43%
    07:00 +3°C° 0 mm 1 mps 609 mmHg 41%
    08:00 +5°C° 0 mm 1 mps 609 mmHg 39%
    09:00 +6°C° 0 mm 1 mps 610 mmHg 38%
    10:00 +7°C° 0 mm 2 mps 611 mmHg 36%
    11:00 +8°C° 0 mm 2 mps 611 mmHg 34%
    12:00 +10°C° 0 mm 2 mps 611 mmHg 32%
    13:00 +9°C° 0 mm 2 mps 611 mmHg 35%
    14:00 +8°C° 0 mm 2 mps 610 mmHg 37%
    15:00 +8°C° 0 mm 2 mps 609 mmHg 40%
    16:00 +5°C° 0 mm 2 mps 608 mmHg 44%
    17:00 +3°C° 0 mm 2 mps 608 mmHg 47%
    18:00 +2°C° 0 mm 1 mps 607 mmHg 51%
    19:00 +2°C° 0 mm 1 mps 607 mmHg 47%
    20:00 +1°C° 0 mm 1 mps 607 mmHg 44%
    21:00 +1°C° 0 mm 1 mps 607 mmHg 41%
    22:00 +1°C° 0 mm 1 mps 607 mmHg 40%
    23:00 +1°C° 0 mm 1 mps 607 mmHg 39%

    Tomorrow, 23 November, Thursday

    Time Temperature Precipitation Wind Pressure Humidity
    00:00 +1°C° 0 mm 1 mps 607 mmHg 38%
    01:00 +1°C° 0 mm 1 mps 607 mmHg 38%
    02:00 +1°C° 0 mm 1 mps 607 mmHg 38%
    03:00 +1°C° 0 mm 1 mps 607 mmHg 38%
    04:00 +2°C° 0 mm 1 mps 607 mmHg 39%
    05:00 +2°C° 0 mm 1 mps 608 mmHg 40%
    06:00 +2°C° 0 mm 1 mps 608 mmHg 42%
    07:00 +4°C° 0 mm 1 mps 609 mmHg 42%
    08:00 +5°C° 0 mm 1 mps 610 mmHg 42%
    09:00 +7°C° 0 mm 1 mps 611 mmHg 42%
    10:00 +8°C° 0 mm 1 mps 612 mmHg 40%
    11:00 +9°C° 0 mm 1 mps 612 mmHg 37%
    12:00 +10°C° 0 mm 2 mps 613 mmHg 35%
    13:00 +9°C° 0 mm 2 mps 613 mmHg 39%
    14:00 +9°C° 0 mm 2 mps 612 mmHg 43%
    15:00 +8°C° 0 mm 2 mps 612 mmHg 47%
    16:00 +6°C° 0 mm 2 mps 611 mmHg 54%
    17:00 +5°C° 0 mm 1 mps 611 mmHg 60%
    18:00 +3°C° 0 mm 1 mps 610 mmHg 66%
    19:00 +3°C° 0 mm 1 mps 610 mmHg 66%
    20:00 +3°C° 0 mm 1 mps 611 mmHg 65%
    21:00 +3°C° 0 mm 1 mps 611 mmHg 65%
    22:00 +3°C° 0 mm 1 mps 611 mmHg 65%
    23:00 +2°C° 0 mm 2 mps 611 mmHg 64%

    Day after tomorrow, 24 November, Friday

    Time Temperature Precipitation Wind Pressure Humidity
    00:00 +2°C° 0 mm 2 mps 611 mmHg 64%
    01:00 +2°C° 0 mm 2 mps 611 mmHg 62%
    02:00 +2°C° 0 mm 2 mps 610 mmHg 60%
    03:00 +3°C° 0 mm 2 mps 610 mmHg 58%
    04:00 +3°C° 0 mm 2 mps 610 mmHg 59%
    05:00 +3°C° 0 mm 2 mps 610 mmHg 60%
    06:00 +3°C° 0 mm 2 mps 610 mmHg 61%
    07:00 +3°C° 0 mm 2 mps 611 mmHg 59%
    08:00 +4°C° 0 mm 2 mps 611 mmHg 58%
    09:00 +5°C° 0 mm 2 mps 612 mmHg 56%
    10:00 +6°C° 0 mm 2 mps 612 mmHg 54%
    11:00 +7°C° 0 mm 2 mps 612 mmHg 53%
    12:00 +8°C° 0 mm 2 mps 613 mmHg 51%
    13:00 +8°C° 0 mm 2 mps 612 mmHg 54%
    14:00 +8°C° 0 mm 2 mps 612 mmHg 56%
    15:00 +7°C° 0 mm 2 mps 611 mmHg 58%
    16:00 +6°C° 0 mm 2 mps 611 mmHg 63%
    17:00 +5°C° 0 mm 2 mps 610 mmHg 68%
    18:00 +3°C° 0 mm 2 mps 610 mmHg 73%
    19:00 +3°C° 0 mm 2 mps 610 mmHg 76%
    20:00 +2°C° 0 mm 2 mps 610 mmHg 79%
    21:00 +2°C° 0 mm 2 mps 609 mmHg 82%
    22:00 +2°C° 0 mm 2 mps 609 mmHg 80%
    23:00 +2°C° 0 mm 2 mps 609 mmHg 78%

    25 November, Saturday

    Time Temperature Precipitation Wind Pressure Humidity
    00:00 +2°C° 0 mm 2 mps 609 mmHg 76%
    01:00 +2°C° 0 mm 2 mps 609 mmHg 73%
    02:00 +2°C° 0 mm 2 mps 609 mmHg 70%
    03:00 +1°C° 0 mm 2 mps 608 mmHg 66%
    04:00 +1°C° 0.1 mm 2 mps 609 mmHg 68%
    05:00 +2°C° 0.1 mm 1 mps 609 mmHg 71%
    06:00 +2°C° 0.1 mm 1 mps 609 mmHg 73%
    07:00 +1°C° 0.1 mm 2 mps 610 mmHg 75%
    08:00 +2°C° 0.1 mm 2 mps 611 mmHg 76%
    09:00 +2°C° 0.1 mm 3 mps 612 mmHg 78%
    10:00 +2°C° 0.1 mm 3 mps 612 mmHg 76%
    11:00 +2°C° 0.1 mm 3 mps 612 mmHg 74%
    12:00 +4°C° 0.1 mm 2 mps 613 mmHg 73%
    13:00 +4°C° 0 mm 2 mps 613 mmHg 72%
    14:00 +3°C° 0 mm 2 mps 613 mmHg 72%
    15:00 +3°C° 0 mm 2 mps 613 mmHg 72%
    16:00 +2°C° 0 mm 2 mps 613 mmHg 77%
    17:00 +1°C° 0 mm 2 mps 612 mmHg 82%
    18:00 -1°C° 0 mm 2 mps 612 mmHg 87%
    19:00 -1°C° 0 mm 2 mps 613 mmHg 87%
    20:00 0°C° 0 mm 1 mps 613 mmHg 88%
    21:00 0°C° 0 mm 1 mps 613 mmHg 88%
    22:00 0°C° 0 mm 1 mps 613 mmHg 89%
    23:00 -1°C° 0 mm 1 mps 613 mmHg 89%

    26 November, Sunday

    Time Temperature Precipitation Wind Pressure Humidity
    00:00 -1°C° 0 mm 1 mps 613 mmHg 90%
    01:00 -1°C° 0 mm 1 mps 612 mmHg 90%
    02:00 -1°C° 0 mm 1 mps 612 mmHg 89%
    03:00 -1°C° 0 mm 1 mps 612 mmHg 89%
    04:00 -4°C° 0 mm 2 mps 612 mmHg 89%
    05:00 -4°C° 0 mm 2 mps 612 mmHg 89%
    06:00 -4°C° 0 mm 2 mps 612 mmHg 88%
    07:00 -4°C° 0 mm 2 mps 613 mmHg 83%
    08:00 -3°C° 0 mm 2 mps 614 mmHg 77%
    09:00 -3°C° 0 mm 2 mps 614 mmHg 72%
    10:00 -2°C° 0 mm 2 mps 615 mmHg 64%
    11:00 -1°C° 0 mm 2 mps 615 mmHg 57%
    12:00 +1°C° 0 mm 2 mps 615 mmHg 49%
    13:00 +1°C° 0 mm 2 mps 615 mmHg 50%
    14:00 +1°C° 0 mm 2 mps 615 mmHg 51%
    15:00 +1°C° 0 mm 2 mps 614 mmHg 51%
    16:00 -2°C° 0 mm 2 mps 614 mmHg 60%
    17:00 -4°C° 0 mm 2 mps 614 mmHg 69%
    18:00 -6°C° 0 mm 2 mps 613 mmHg 77%
    19:00 -6°C° 0 mm 2 mps 614 mmHg 76%
    20:00 -6°C° 0 mm 2 mps 614 mmHg 74%
    21:00 -6°C° 0 mm 2 mps 614 mmHg 73%
    22:00 -6°C° 0 mm 2 mps 614 mmHg 72%
    23:00 -6°C° 0 mm 2 mps 614 mmHg 72%

    27 November, Monday

    Time Temperature Precipitation Wind Pressure Humidity
    00:00 -7°C° 0 mm 2 mps 614 mmHg 72%
    01:00 -7°C° 0 mm 2 mps 614 mmHg 70%
    02:00 -6°C° 0 mm 1 mps 613 mmHg 68%
    03:00 -6°C° 0 mm 1 mps 613 mmHg 66%
    04:00 -6°C° 0 mm 1 mps 613 mmHg 64%
    05:00 -6°C° 0 mm 1 mps 613 mmHg 62%
    06:00 -6°C° 0 mm 1 mps 613 mmHg 59%
    07:00 -3°C° 0 mm 1 mps 613 mmHg 54%
    08:00 -2°C° 0 mm 1 mps 614 mmHg 48%
    09:00 0°C° 0 mm 1 mps 615 mmHg 42%
    10:00 +1°C° 0 mm 1 mps 615 mmHg 41%
    11:00 +3°C° 0 mm 1 mps 615 mmHg 39%
    12:00 +3°C° 0 mm 2 mps 615 mmHg 38%
    13:00 +3°C° 0 mm 2 mps 614 mmHg 39%
    14:00 +2°C° 0 mm 2 mps 613 mmHg 41%
    15:00 +2°C° 0 mm 2 mps 612 mmHg 43%
    16:00 -1°C° 0 mm 2 mps 611 mmHg 48%
    17:00 -3°C° 0 mm 2 mps 610 mmHg 52%
    18:00 -2°C° 0 mm 1 mps 609 mmHg 57%
    19:00 -2°C° 0 mm 1 mps 609 mmHg 58%
    20:00 -2°C° 0 mm 1 mps 609 mmHg 60%
    21:00 -2°C° 0 mm 1 mps 609 mmHg 61%
    22:00 -1°C° 0 mm 1 mps 609 mmHg 65%
    23:00 -1°C° 0 mm 1 mps 608 mmHg 69%
    Show more